Theta_e
324 317 316 318 318 315 313 305 297 293 285 285 282 283 289 292 292 292 292 293 291 295 295 299 298 297 296 294 295 296 296 293 294 288 289 298 307 308 308 309 308 307 307 308 311 316 321 331 336 337 338 338 340 341 341 342 342 343 344 345 345 346 347 347 347 347 347 348 348 347 346 345 347 347 348 347 347 349 348 348 346 346 348 348 348 348 347 347 347 346 346 347 346 349 348 347 347
319 316 318 317 317 314 309 298 288 283 284 283 286 284 287 289 292 290 290 290 293 295 297 300 300 301 301 299 298 297 297 297 299 298 302 306 306 305 308 308 306 305 305 306 309 314 319 325 333 335 336 337 338 338 338 339 339 339 340 341 342 344 345 346 346 346 346 346 347 347 347 346 347 346 347 347 346 346 346 346 347 348 349 349 349 349 347 347 347 347 347 346 346 349 349 349 347
317 317 317 315 314 309 303 298 294 281 282 282 283 285 289 291 289 290 290 294 296 297 295 295 295 294 294 295 295 292 292 300 300 301 300 305 300 302 307 307 305 304 304 305 307 311 317 323 328 331 333 333 334 334 334 335 336 336 337 337 338 340 341 342 343 344 345 345 345 345 346 345 346 346 346 346 347 345 345 345 346 347 346 347 349 348 347 347 347 347 347 347 347 348 349 347 347
315 317 314 311 309 298 295 287 286 282 285 279 283 287 289 288 290 291 292 295 296 294 294 294 293 295 294 293 293 296 294 297 300 300 299 301 303 306 306 305 305 301 301 303 304 309 315 322 325 327 329 331 331 330 330 331 332 332 333 334 334 335 336 338 339 341 341 342 343 344 344 345 345 345 345 345 345 345 344 345 345 345 347 346 347 349 348 347 348 348 348 348 347 348 349 349 348
315 316 312 307 302 299 289 286 282 283 284 281 285 285 288 288 291 290 292 293 293 292 294 293 291 295 296 295 295 292 294 297 300 301 301 302 304 304 305 306 301 299 299 300 302 307 313 321 322 323 326 328 329 328 327 327 328 329 330 330 331 332 332 333 335 337 338 339 341 341 342 342 344 344 344 344 344 344 344 344 345 345 345 345 346 346 348 348 348 348 348 348 348 348 348 349 348
310 309 310 313 307 299 291 288 288 287 285 284 284 289 288 289 291 290 292 292 294 293 293 291 292 292 292 294 295 291 296 294 299 300 300 300 303 303 303 305 298 298 298 298 300 303 311 318 320 321 323 325 326 326 325 325 326 327 327 328 329 330 330 330 331 331 332 333 335 337 339 340 341 342 343 342 342 342 343 343 344 344 344 345 345 346 346 346 347 348 347 346 347 347 348 349 348
310 304 301 303 299 296 291 283 284 282 291 287 290 289 291 289 292 292 292 294 295 293 293 294 294 294 291 293 294 297 298 299 298 299 301 302 302 301 302 298 297 297 298 298 298 301 310 316 319 320 321 322 324 324 323 323 324 324 325 325 327 327 327 326 326 327 328 330 332 334 335 337 338 339 339 340 340 341 341 342 342 342 342 343 344 345 346 347 347 345 346 346 345 346 348 348 349
309 307 299 295 290 286 284 283 286 282 289 288 290 291 290 290 290 291 291 291 292 292 293 293 293 290 290 294 291 297 297 298 299 300 301 299 300 300 301 297 296 296 297 297 297 300 311 314 316 317 318 320 321 321 322 322 322 322 322 323 324 325 324 323 323 324 325 327 329 330 331 333 334 336 336 338 338 339 339 340 341 341 341 341 342 343 344 346 346 344 346 345 346 347 347 348 348
303 302 298 295 289 285 283 285 287 287 286 288 289 290 300 289 290 289 290 289 292 291 293 293 292 289 290 290 290 293 295 298 298 303 301 299 299 299 300 297 295 297 297 297 297 298 301 310 313 314 315 317 319 319 320 320 320 320 321 321 322 322 321 321 320 321 322 324 326 326 326 327 329 331 333 334 335 336 337 338 339 340 341 341 341 341 343 343 345 345 344 344 344 345 346 347 348
299 300 294 292 286 287 282 284 286 288 290 290 290 293 289 289 290 289 291 292 292 293 293 292 291 289 291 290 290 293 294 297 297 297 298 299 298 299 299 298 297 296 296 296 297 297 300 307 310 311 312 313 316 317 317 317 318 318 318 319 319 319 319 318 318 318 319 321 323 322 321 321 322 324 326 328 331 332 333 334 335 337 338 340 340 341 342 342 343 344 344 343 342 342 344 346 347
298 295 293 291 282 283 285 284 282 285 289 287 288 290 289 289 290 289 291 291 291 292 292 291 290 290 290 289 289 293 296 295 294 294 297 298 297 297 295 297 297 296 295 296 297 296 295 299 306 308 308 309 311 314 314 314 315 316 316 316 317 317 317 316 316 316 317 317 319 319 318 318 318 320 321 324 328 329 330 329 330 333 336 337 338 338 339 340 341 342 342 342 341 341 342 343 344
293 294 290 282 282 284 282 285 287 287 288 287 293 292 291 291 291 291 290 293 290 290 291 292 291 291 289 288 290 293 294 294 294 296 296 296 294 296 295 294 297 296 296 295 296 295 294 295 297 304 306 307 307 309 311 311 312 312 313 314 314 314 314 314 313 313 314 315 316 315 315 315 315 316 318 320 320 320 321 318 320 325 331 332 335 335 336 337 338 339 339 338 338 340 341 342 344
293 290 287 287 287 285 283 285 286 290 285 288 291 294 290 291 292 293 291 291 289 290 291 292 294 290 287 287 289 292 291 293 294 294 296 293 294 293 294 293 296 295 296 296 294 295 295 294 295 297 301 303 304 305 307 308 308 310 310 311 311 311 311 311 311 310 311 311 312 312 311 310 311 312 314 316 316 316 316 315 317 319 322 326 328 328 329 330 332 333 335 336 337 337 338 340 341
292 291 288 289 284 282 284 285 284 287 286 289 290 291 290 291 290 290 291 291 289 290 292 292 294 290 288 287 290 289 290 292 293 295 294 294 293 292 294 292 294 293 294 293 293 293 294 294 295 295 295 295 295 298 302 306 306 307 308 308 308 308 308 308 308 308 307 308 308 308 307 307 307 308 309 311 312 312 312 312 314 317 320 323 321 321 323 324 327 331 333 334 336 337 338 339 338
299 290 287 285 284 284 283 286 288 284 287 288 292 290 290 292 289 290 291 290 290 291 292 295 293 292 289 288 286 290 291 293 294 295 294 293 293 292 293 292 293 293 292 291 292 292 293 294 293 294 295 293 294 294 294 298 305 304 305 305 306 306 306 306 305 305 304 305 305 305 305 304 304 304 305 307 308 308 308 307 309 314 318 319 318 318 319 321 322 323 329 331 332 334 335 336 335
295 292 286 288 285 284 286 286 284 285 288 289 291 289 291 291 290 291 291 291 290 291 292 293 294 291 290 292 290 292 292 293 293 293 291 292 291 292 290 290 291 291 292 291 291 291 292 293 293 293 294 293 293 294 294 294 302 303 303 303 303 304 304 303 303 303 302 302 303 303 302 301 301 299 303 302 305 305 305 304 307 311 314 315 315 316 317 318 319 321 323 325 330 331 332 331 330
295 292 290 282 288 285 286 286 286 287 286 288 290 291 290 290 291 289 290 290 291 290 287 288 289 290 290 289 291 292 292 295 296 291 291 291 289 290 289 289 292 290 292 291 291 291 291 292 293 293 292 292 292 293 294 294 298 300 298 301 301 301 301 301 301 300 300 299 301 301 300 296 295 295 296 298 302 301 304 304 304 308 310 311 312 313 315 315 316 317 319 322 324 327 326 325 326
293 288 283 287 284 285 287 288 289 287 290 290 289 289 290 289 290 291 290 289 286 286 287 287 289 288 289 290 290 292 292 292 291 290 289 288 289 287 287 288 288 288 289 290 290 291 291 291 291 292 292 292 292 294 294 294 294 297 292 292 295 296 298 299 295 295 298 293 299 296 294 295 295 294 295 301 297 299 299 302 302 304 307 308 308 310 311 313 314 315 316 318 320 322 322 324 325
288 285 285 287 285 288 291 288 290 290 291 291 290 288 291 290 290 290 289 287 287 288 288 286 287 288 289 290 290 291 291 290 290 288 288 288 288 287 287 288 287 288 289 289 290 290 290 290 291 292 291 291 291 291 293 293 291 291 291 292 293 297 295 294 291 293 291 292 293 293 294 293 294 293 295 299 299 300 298 300 301 302 304 304 305 307 308 310 311 311 313 314 315 317 319 322 324
291 289 286 284 288 287 288 288 291 289 290 290 289 288 289 290 290 290 290 286 286 288 287 285 285 286 288 288 288 289 289 289 289 288 287 287 287 287 286 287 286 287 288 289 291 292 290 290 290 291 292 290 290 291 292 291 291 290 291 291 291 291 290 291 290 290 291 291 292 292 292 293 293 292 298 298 297 293 294 298 299 299 301 302 303 303 305 306 308 308 309 311 311 311 313 315 319
293 287 285 290 288 291 293 287 288 289 290 290 288 287 289 290 289 290 287 287 286 288 289 290 288 288 288 288 288 288 288 288 288 287 287 287 287 288 286 287 287 287 288 290 290 290 289 289 289 290 290 290 290 289 290 291 291 290 290 291 290 290 290 289 289 289 290 290 291 291 292 292 292 291 291 291 291 291 291 292 292 293 294 295 301 297 299 300 301 301 302 305 305 306 307 310 313
291 291 289 289 288 291 292 289 289 288 287 287 287 290 289 289 291 288 289 289 290 290 292 290 290 290 289 288 288 287 287 287 287 287 286 287 287 286 286 287 288 287 292 288 288 287 289 289 288 289 290 289 289 289 289 292 290 289 289 291 290 290 289 289 289 289 289 289 290 291 292 291 290 290 290 290 290 290 290 290 291 292 292 293 295 295 297 298 298 299 301 302 302 303 305 306 309
292 288 287 288 288 291 291 290 290 288 288 287 287 289 289 290 289 288 289 293 291 290 288 290 288 290 290 289 288 287 287 286 286 287 287 286 287 287 286 286 287 287 287 287 287 287 292 288 288 288 289 289 289 289 289 289 288 289 289 293 290 290 288 288 288 288 289 289 290 291 291 290 289 289 289 288 288 289 289 289 290 290 290 291 293 294 295 296 297 298 300 300 300 301 302 304 305
291 292 288 291 287 291 291 291 288 287 289 289 287 289 289 288 289 287 288 292 288 286 287 289 289 289 288 287 287 287 287 286 287 287 287 287 288 288 288 287 286 286 286 288 288 288 290 288 288 287 289 290 288 288 288 288 288 289 290 292 289 293 289 287 287 288 289 288 290 290 291 289 288 287 287 287 287 287 288 288 288 289 289 289 291 293 294 295 296 297 297 298 299 299 300 302 304
290 290 290 290 289 288 288 288 288 287 286 288 287 289 289 289 289 286 289 292 288 287 288 288 288 287 286 286 286 286 286 285 286 287 288 286 287 289 288 287 287 286 286 286 287 287 288 291 289 287 287 288 289 288 288 288 288 288 288 288 287 294 287 287 287 288 287 288 288 289 289 287 287 286 285 286 286 286 287 287 287 287 288 288 290 290 292 293 294 295 296 296 297 298 299 300 302
291 292 289 288 290 289 287 290 287 286 287 286 289 288 286 286 288 288 292 289 286 287 287 287 287 286 285 286 286 286 285 286 286 286 287 286 287 287 287 287 286 286 286 286 287 287 287 289 287 288 288 289 290 287 287 288 288 287 288 288 288 290 287 287 288 286 287 287 287 288 287 287 286 285 285 285 285 286 286 286 287 287 287 288 288 289 291 292 293 294 295 295 296 297 298 299 300
290 291 289 290 290 288 289 290 289 286 286 286 288 286 287 287 288 289 285 286 286 286 286 285 286 286 286 286 285 285 285 285 286 286 286 286 285 286 287 286 287 285 288 287 286 286 291 287 288 288 288 292 289 287 289 288 288 287 289 288 287 287 287 288 287 286 287 286 287 286 286 286 286 285 284 285 285 285 285 285 285 286 286 287 288 288 290 291 292 293 294 295 295 296 297 298 299
290 290 288 288 285 286 286 287 286 287 290 285 288 286 287 287 286 290 287 286 287 286 284 285 285 285 285 285 285 285 285 286 286 285 286 285 285 285 286 286 285 285 285 285 285 287 287 287 287 288 288 290 289 287 289 287 287 287 289 286 287 287 288 286 286 286 287 286 286 286 285 285 287 284 284 284 285 285 284 284 284 284 285 286 287 288 289 291 292 293 294 295 296 296 296 297 298
289 288 290 286 286 288 288 288 288 287 290 286 286 288 285 285 286 288 285 286 286 285 284 284 284 284 285 284 285 285 285 285 284 285 285 285 285 285 286 285 286 286 286 285 285 288 286 287 288 288 288 287 287 287 287 287 287 287 287 287 287 289 286 286 285 285 285 285 286 285 285 285 286 284 284 284 285 283 283 283 283 284 284 285 285 286 288 290 291 292 293 294 294 295 295 295 297
289 287 286 288 285 286 289 287 286 287 289 285 288 285 285 287 291 284 286 285 284 284 284 284 284 284 284 284 284 285 285 285 284 285 285 285 284 285 285 284 286 285 286 285 286 285 288 289 290 290 291 287 290 288 290 287 286 287 290 286 289 287 285 285 287 284 286 286 285 284 284 284 285 284 284 283 283 283 282 282 282 283 283 284 284 285 286 288 289 291 292 293 294 293 293 294 295
289 287 284 281 284 282 288 288 287 288 289 286 288 284 289 288 287 285 286 286 285 285 284 284 283 283 283 283 284 285 285 284 285 285 285 284 284 284 283 283 286 285 288 286 284 284 288 286 291 289 291 288 287 286 287 287 289 287 286 286 285 286 285 284 283 284 283 284 284 283 284 285 284 284 283 283 282 282 282 282 282 282 283 283 283 284 285 286 287 288 290 290 291 292 293 293 294
282 286 282 279 284 283 284 287 286 289 289 287 288 284 287 291 288 285 286 285 285 285 284 284 283 283 283 283 283 284 285 284 284 285 285 284 284 283 283 284 284 284 284 284 284 286 285 284 288 285 287 286 286 288 288 286 286 285 286 290 286 285 285 284 283 284 283 283 283 283 283 284 284 283 283 282 281 281 281 281 281 282 282 283 283 284 285 285 285 286 288 289 289 291 292 292 293
278 284 281 282 280 281 285 287 284 286 288 288 288 286 285 287 283 283 284 285 284 285 284 284 283 283 283 283 283 284 284 284 284 284 284 284 283 283 283 283 283 284 284 284 283 283 284 284 289 286 286 286 286 284 285 285 285 285 284 284 284 284 283 283 283 283 283 282 283 282 283 284 283 283 282 282 281 281 281 281 281 281 282 282 282 283 283 283 283 284 285 287 289 289 290 291 292
279 279 283 279 283 282 283 285 285 285 287 286 287 284 287 290 285 283 283 285 283 284 284 284 284 284 283 283 283 283 284 284 284 284 284 284 284 282 282 286 284 284 284 284 283 284 284 284 284 285 285 286 285 285 286 285 285 285 284 284 287 284 282 283 283 283 282 282 283 282 283 283 284 282 281 281 280 281 281 280 280 281 282 282 282 281 281 282 282 282 282 284 285 285 286 288 290
282 280 281 283 279 280 284 283 285 285 287 285 284 285 287 289 291 283 284 284 284 284 285 285 284 284 284 283 283 283 283 284 285 285 285 284 283 283 282 284 283 283 283 283 282 283 284 283 285 287 289 286 285 285 285 286 284 283 283 283 282 282 282 282 282 282 282 282 282 282 283 283 282 281 281 281 280 280 280 280 280 280 281 281 280 280 280 281 281 281 281 282 284 285 286 287 288
283 281 280 279 282 283 280 283 282 285 284 284 283 285 287 289 290 289 283 284 283 284 285 285 284 284 284 283 283 283 283 284 285 285 285 284 283 283 282 283 283 283 282 282 284 282 283 282 284 284 285 284 284 284 284 283 283 283 282 281 281 282 281 283 283 281 281 281 283 283 282 281 281 281 280 280 280 280 280 280 280 280 280 280 279 279 279 279 279 280 281 282 283 284 287 287 289
281 280 281 281 280 282 283 282 283 282 283 283 285 284 284 286 288 290 286 283 283 283 284 284 284 284 284 283 284 284 284 284 285 285 285 284 283 283 283 282 282 282 282 281 281 282 282 284 285 283 283 283 284 283 282 282 281 281 281 280 280 280 281 282 282 281 281 281 282 281 281 281 280 280 281 280 279 280 279 279 279 279 280 280 279 279 279 279 280 280 280 281 281 282 283 287 289
283 282 280 282 280 281 285 284 283 281 284 281 280 280 283 285 288 289 286 283 283 283 284 284 284 284 284 284 284 284 284 283 284 283 283 283 283 282 282 281 283 281 281 280 282 283 282 281 282 283 283 283 283 282 283 284 281 281 280 280 280 280 280 279 280 280 281 282 281 281 280 280 280 279 280 279 280 279 278 279 278 279 279 279 279 280 279 281 279 279 279 278 280 280 281 285 288
281 283 280 280 282 281 284 282 281 283 282 282 282 282 285 287 288 290 290 288 289 288 286 287 286 285 285 285 284 284 283 283 284 284 283 282 282 282 282 282 282 282 282 282 281 281 281 281 282 282 283 283 283 283 283 281 281 282 281 280 280 279 280 281 281 281 281 281 280 280 280 280 280 279 279 280 279 279 278 278 278 278 278 279 278 278 278 277 278 277 277 277 277 279 281 284 287
280 279 281 282 281 282 282 281 281 281 283 283 284 282 284 287 288 289 291 290 289 290 288 287 287 286 286 285 285 285 284 283 283 284 283 282 282 282 281 281 281 281 282 281 280 281 281 283 282 282 283 282 282 283 286 282 282 282 282 281 281 280 280 282 282 281 279 279 278 279 279 279 279 279 279 278 279 278 278 278 278 278 278 278 278 277 277 276 277 277 277 277 278 277 280 283 289
280 281 280 281 282 282 282 281 281 281 281 280 282 285 285 285 285 287 284 282 285 288 286 285 286 287 287 286 286 286 285 284 284 283 282 281 281 281 281 281 281 281 281 281 281 281 282 282 283 282 282 282 282 284 284 282 282 281 280 280 281 280 280 280 278 277 278 279 280 278 278 278 278 278 278 278 279 278 278 278 278 278 278 278 278 277 276 276 276 277 277 277 277 276 276 278 281
277 279 284 284 283 282 280 279 281 279 277 280 281 282 278 277 282 284 286 283 285 284 284 285 285 285 285 285 285 285 286 285 284 284 283 282 282 281 281 281 280 281 281 281 281 282 282 282 281 281 281 282 282 281 281 282 282 280 278 278 277 277 277 277 277 277 278 278 277 278 278 278 278 278 278 277 277 278 277 278 277 277 277 277 277 277 276 276 276 276 277 277 276 277 276 276 278
281 282 281 282 282 282 281 280 281 276 276 280 279 278 279 280 285 284 284 282 285 287 284 286 284 284 284 285 286 285 284 284 284 284 283 282 281 281 281 280 281 281 281 281 280 280 280 281 281 281 282 282 282 281 281 283 279 279 278 277 277 277 276 277 277 277 277 278 278 277 278 278 278 277 277 277 277 277 277 277 277 277 277 277 277 276 276 276 276 276 277 276 276 276 276 275 275
280 281 279 281 281 282 279 280 281 279 278 279 279 281 279 279 282 288 289 286 287 287 288 287 286 284 284 285 285 285 284 284 284 283 283 282 281 281 281 280 280 282 282 280 281 280 280 281 281 281 281 283 282 281 280 281 280 279 278 277 279 278 277 277 277 277 278 279 277 277 277 277 277 277 277 277 277 277 277 277 277 277 276 276 277 276 276 276 276 276 277 276 276 276 275 275 275
280 281 279 279 281 280 278 280 278 277 276 277 276 280 276 275 276 277 281 282 283 285 287 288 287 285 284 285 285 285 284 284 284 283 282 282 281 281 281 281 281 281 281 281 281 281 281 280 281 280 281 280 281 280 282 280 281 280 278 277 276 278 278 278 278 279 277 277 275 276 276 276 276 276 276 276 276 276 277 277 276 276 276 276 277 276 276 276 275 275 275 275 275 275 275 276 276
283 280 280 279 279 279 278 276 279 274 273 279 277 278 274 281 279 280 279 280 281 284 287 288 287 286 284 284 284 284 283 283 283 283 283 282 282 281 281 281 280 280 281 282 281 280 280 279 280 281 280 279 280 279 279 278 278 279 277 277 276 276 277 277 276 276 276 275 275 275 275 275 275 275 275 275 276 276 276 276 276 276 275 275 277 276 275 275 275 275 275 274 274 274 275 276 278
282 281 281 280 277 276 275 274 273 273 272 280 281 279 280 277 279 280 281 281 282 285 284 284 283 282 282 283 283 283 283 283 282 282 282 282 281 281 280 280 280 280 280 280 280 280 279 279 279 279 279 279 279 279 278 278 278 277 277 276 276 276 276 276 275 275 275 275 274 274 274 275 275 275 275 275 275 275 275 276 276 275 276 276 276 275 274 274 275 274 275 274 274 274 274 275 276
281 281 279 282 281 275 270 264 269 270 274 275 275 278 280 274 278 280 282 281 281 286 286 286 286 286 284 282 282 283 283 282 281 280 280 281 279 280 279 280 280 280 279 279 279 279 279 279 279 279 279 278 278 278 278 278 277 277 277 276 276 276 275 275 274 274 274 274 274 274 274 274 274 274 274 274 274 274 275 275 275 275 275 275 274 274 275 275 275 275 274 274 274 274 274 274 275
281 279 276 275 271 271 272 266 270 268 274 274 272 276 275 277 283 280 281 284 285 282 285 288 288 287 283 280 282 282 282 281 281 280 280 280 280 279 279 280 279 279 280 280 280 279 278 278 278 279 278 278 277 277 277 277 276 276 276 276 275 277 276 275 274 274 274 273 273 273 273 273 273 273 273 273 273 274 274 274 274 274 274 274 275 274 274 274 274 274 274 273 273 273 273 273 274
280 281 275 272 270 269 268 268 263 268 272 273 277 276 276 282 282 287 288 289 288 286 284 285 285 285 284 281 281 281 281 281 281 280 280 280 281 280 280 280 280 280 280 280 279 279 278 279 278 278 278 277 277 277 276 276 276 276 276 275 275 275 274 274 274 274 274 274 274 273 273 272 272 272 272 272 273 273 274 274 274 274 274 274 274 274 274 274 274 274 273 273 273 273 274 273 273
281 279 282 279 271 266 268 265 271 276 274 273 274 273 274 274 279 280 286 289 289 287 287 283 279 280 280 280 280 280 279 279 280 280 280 280 280 280 280 280 280 280 280 279 278 278 278 278 278 278 277 276 276 276 276 276 276 275 275 275 275 274 274 274 274 275 274 273 273 272 272 272 272 272 272 272 273 273 273 273 274 274 274 274 274 273 274 274 274 273 273 273 273 273 273 273 273
279 278 280 276 279 277 276 270 266 269 272 274 269 276 275 281 282 282 278 278 281 280 281 280 280 279 279 279 280 280 279 279 279 280 280 280 280 279 280 280 280 279 279 279 278 278 278 278 277 277 276 276 276 277 276 275 275 275 274 274 274 274 275 274 274 274 273 273 272 272 272 272 272 272 272 273 273 273 273 273 273 273 273 273 273 273 273 273 273 272 272 272 272 274 273 272 272
280 280 277 279 280 282 274 271 268 268 266 276 268 275 280 280 286 285 285 280 283 279 279 279 279 278 278 280 280 279 279 279 279 279 280 279 279 279 280 279 279 279 279 278 278 278 278 278 277 276 276 275 275 276 275 274 274 274 274 273 273 273 272 272 272 272 272 272 272 272 271 271 272 272 272 273 272 273 273 273 273 273 273 273 273 273 273 273 273 272 272 272 272 272 273 272 273
280 274 279 280 280 279 277 272 269 263 266 274 268 277 279 277 279 277 278 280 280 281 282 282 277 277 277 280 280 279 279 279 279 279 279 279 279 279 279 279 279 279 279 278 278 277 277 277 276 276 276 275 275 275 274 274 273 273 273 273 272 272 272 272 272 271 271 271 271 271 271 271 271 271 272 272 273 272 272 273 272 272 272 272 272 272 272 272 272 272 272 272 272 272 272 272 272
279 277 281 281 275 275 274 268 269 266 266 268 273 275 278 280 281 283 278 278 280 280 282 279 278 277 278 280 280 279 278 278 278 278 279 279 279 279 279 279 279 279 279 278 277 277 276 276 276 275 275 275 275 275 274 274 274 273 274 273 272 272 272 271 271 271 271 270 270 270 270 270 271 271 272 271 271 271 271 271 272 271 272 272 272 272 272 272 272 271 272 272 272 272 271 271 272
280 281 280 279 278 271 271 276 268 270 269 265 275 277 277 280 281 281 283 279 280 282 280 279 280 280 280 280 280 279 278 278 279 279 279 279 279 279 278 278 278 277 277 277 277 276 276 275 276 275 275 275 274 273 273 272 272 272 272 272 271 271 271 271 270 270 270 269 270 270 270 270 270 271 271 271 271 271 271 271 271 271 271 271 271 272 272 272 272 272 271 271 271 272 271 271 272
278 279 276 275 275 277 275 273 272 272 267 269 267 273 279 283 285 285 285 282 281 283 284 281 280 280 280 280 280 279 279 279 279 279 279 279 278 278 278 278 278 277 277 277 276 276 275 275 274 275 274 273 273 273 272 272 272 271 271 270 270 270 270 270 269 269 269 269 269 270 270 270 271 270 271 270 270 270 271 271 271 271 271 271 271 271 271 272 271 271 271 271 271 271 271 271 271
283 282 280 280 276 272 270 274 272 268 273 269 267 274 280 286 284 286 284 283 282 283 285 284 281 280 280 280 280 279 279 279 279 279 279 278 278 277 277 277 276 276 276 276 276 275 274 274 274 273 273 272 272 272 271 271 270 271 270 270 269 269 269 269 269 269 269 269 269 269 270 270 270 270 270 270 270 270 271 270 270 270 269 270 269 270 270 270 270 270 270 271 271 271 270 270 271
Wind_Speed
3 2 1 2 3 1 1 6 1 2 3 1 1 1 1 1 1 1 2 0 2 2 3 3 4 3 1 2 9 5 1 4 1 3 2 2 1 2 5 7 8 7 7 8 8 7 9 13 18 18 19 19 19 20 20 21 21 20 21 20 19 18 18 17 16 14 14 13 12 12 10 12 14 13 12 11 12 11 10 9 8 8 8 9 11 11 11 10 10 12 12 12 11 10 8 6 6
1 1 2 0 0 1 1 1 4 3 6 2 0 1 2 1 1 2 4 2 2 3 1 11 11 13 14 12 7 4 6 3 1 2 1 1 3 2 7 8 7 8 8 8 8 8 8 11 18 18 19 19 20 20 20 21 21 21 21 22 22 22 21 20 19 17 16 16 16 15 14 13 12 12 14 14 14 14 13 13 12 11 9 9 11 12 11 11 12 12 12 12 13 10 7 4 4
2 1 2 3 3 3 2 3 1 1 2 1 2 5 2 0 3 0 3 6 9 8 4 7 6 4 2 2 4 3 2 1 1 1 2 3 4 6 8 7 6 6 6 6 8 8 7 10 17 19 20 20 20 20 21 21 21 21 21 21 21 22 22 22 23 22 21 21 19 19 18 16 14 13 13 14 14 12 13 14 15 15 14 13 13 12 12 11 12 12 12 13 13 12 8 5 6
3 4 3 3 1 3 1 4 5 5 0 2 0 2 1 3 4 3 2 8 10 6 2 1 5 1 4 6 1 1 2 1 0 2 1 3 1 4 6 5 7 4 4 5 6 6 7 12 19 19 20 20 20 21 21 21 21 21 21 21 21 21 21 21 22 22 23 23 22 22 22 21 19 16 14 13 13 14 14 15 15 16 17 16 16 16 13 12 12 12 12 13 13 11 10 7 7
4 2 2 2 3 1 3 1 4 2 0 5 2 3 2 3 7 4 4 2 2 2 0 2 5 4 0 4 0 1 3 1 2 1 1 1 3 3 4 4 4 3 5 6 6 6 7 17 18 19 20 20 20 20 21 21 21 21 21 21 21 21 21 21 21 21 22 22 22 22 21 21 22 21 19 17 14 14 14 15 15 14 15 17 18 17 16 15 13 12 12 12 13 12 10 9 8
5 3 3 1 0 2 5 1 2 1 3 5 2 2 4 5 6 4 2 2 0 0 1 1 5 5 2 1 1 1 1 2 1 2 1 1 3 4 4 3 2 5 5 5 6 6 7 17 18 19 20 20 20 20 20 21 21 21 21 21 21 21 21 21 21 21 21 21 21 21 20 20 21 21 21 20 20 19 17 16 16 16 16 15 16 18 18 17 17 15 13 13 13 13 9 8 9
0 3 4 3 2 3 3 3 2 2 0 4 0 1 5 4 6 9 5 4 1 3 2 2 6 7 4 1 1 0 1 2 1 0 1 0 2 2 3 1 2 5 6 6 6 7 9 17 18 19 19 20 20 21 21 21 21 21 21 21 21 21 21 22 21 21 21 21 21 20 20 21 21 21 21 20 19 20 20 20 19 18 18 17 17 17 17 18 19 18 16 14 14 13 10 8 9
2 0 2 2 1 4 3 2 1 2 1 3 1 0 1 5 7 5 5 4 4 3 1 4 1 5 1 3 3 1 1 0 1 1 1 1 1 1 2 2 5 5 5 5 5 6 9 18 18 19 20 20 20 20 21 21 21 21 21 21 21 21 21 22 22 22 21 21 21 21 21 21 21 21 21 21 22 20 20 20 20 20 20 20 19 19 18 18 18 19 18 18 14 11 9 9 9
5 6 0 3 3 3 3 2 0 2 4 1 2 4 0 6 7 5 2 2 2 2 7 4 0 2 3 3 3 2 1 1 1 1 1 0 0 1 2 3 5 5 5 5 5 5 6 16 18 19 20 20 20 20 21 21 21 21 21 21 21 21 22 22 22 22 22 21 21 21 21 21 21 21 22 22 22 21 21 21 21 21 21 21 21 21 20 19 19 19 19 18 18 13 11 10 9
2 2 1 2 3 2 1 1 2 3 1 2 1 2 4 4 4 2 7 4 4 8 5 2 1 3 6 5 2 1 3 0 0 3 0 1 0 0 2 2 3 4 5 5 5 5 6 12 19 19 20 20 20 20 20 20 20 21 21 21 21 21 22 22 22 22 22 22 21 21 22 22 22 22 21 21 22 22 22 22 22 21 20 20 21 22 22 22 20 20 20 20 20 19 15 13 11
0 5 2 3 4 2 3 3 3 2 2 2 4 5 5 4 6 4 1 4 3 6 1 4 4 7 5 2 3 2 0 2 5 5 1 1 0 1 2 3 3 3 5 5 4 5 5 6 14 18 19 20 20 20 20 20 20 20 20 21 21 21 22 22 22 22 22 22 21 22 22 22 22 22 22 21 21 22 22 23 23 23 21 21 20 20 22 22 22 22 22 21 21 21 21 15 13
1 0 1 3 2 6 5 6 2 3 4 2 3 1 2 6 5 4 4 8 4 2 4 6 4 6 4 3 3 2 1 4 5 4 2 1 2 0 3 3 4 4 4 4 4 4 4 5 5 11 16 17 19 19 19 20 20 20 20 21 21 21 21 21 22 22 22 21 21 21 21 22 22 22 21 21 21 22 21 22 22 22 23 22 22 22 22 22 23 23 22 22 21 20 20 22 19
2 1 5 5 1 0 1 3 3 1 2 3 3 0 2 6 6 8 6 4 5 6 3 6 6 3 4 4 2 0 4 5 4 4 3 3 2 2 2 3 3 4 4 4 5 5 5 4 6 6 9 13 13 16 17 19 20 20 20 20 20 20 20 21 21 21 21 21 21 21 21 21 21 21 22 21 22 22 22 22 22 21 20 21 23 23 22 22 22 22 22 21 21 20 19 20 22
3 6 5 2 1 4 5 3 1 3 4 3 1 1 1 2 2 4 10 6 5 6 1 2 7 4 1 2 1 4 6 6 5 4 2 1 2 3 2 2 4 4 4 4 4 4 5 4 5 5 5 6 6 8 11 16 18 19 19 19 20 19 20 20 20 20 20 20 20 20 20 19 20 20 21 21 22 21 22 22 22 21 21 20 21 22 22 22 21 22 22 22 22 21 19 19 20
0 2 6 5 1 1 2 5 10 6 5 4 2 4 2 3 2 2 4 6 6 1 1 1 4 3 6 10 5 10 9 7 6 4 3 2 3 2 2 1 3 4 4 4 4 5 5 4 5 5 5 5 6 6 6 8 15 16 18 19 19 19 19 19 19 19 19 19 19 18 18 16 17 18 19 19 20 21 21 21 22 21 21 21 21 21 21 21 22 21 22 22 22 21 21 20 20
4 5 4 3 2 4 3 1 1 3 6 4 2 6 6 1 0 3 2 1 2 1 2 5 0 2 0 11 4 11 10 8 5 4 4 3 1 1 2 1 2 2 3 4 5 4 4 5 4 5 5 5 5 5 6 6 9 14 14 16 18 18 19 18 18 17 15 14 15 15 14 10 10 10 15 12 17 18 18 17 20 21 20 20 21 21 21 21 22 21 21 21 21 21 21 21 21
2 3 1 4 2 2 3 3 6 4 4 3 1 6 4 3 1 1 1 1 7 2 0 0 3 2 3 3 2 12 8 6 6 4 4 2 1 1 1 2 2 4 3 4 5 5 5 5 5 5 5 5 5 4 5 5 6 10 8 11 14 16 16 15 15 13 11 9 10 10 9 8 7 7 8 9 12 10 14 17 19 20 20 20 20 20 20 20 21 22 21 21 21 21 20 20 16
1 2 4 1 1 3 5 6 10 1 5 4 5 6 6 3 1 1 1 5 3 2 1 3 2 2 1 1 2 7 6 7 5 7 5 4 2 1 2 1 3 4 4 4 4 4 5 5 5 5 5 6 5 5 4 4 5 7 6 6 6 8 9 10 7 7 8 6 9 7 7 7 7 6 7 8 8 9 9 17 17 19 19 19 20 20 20 19 20 21 21 21 21 21 21 10 10
4 2 2 3 3 2 5 3 5 1 2 6 6 3 5 4 10 4 3 2 1 2 2 2 1 2 4 4 5 7 7 6 6 5 6 5 4 4 4 3 4 2 4 4 5 4 4 4 5 6 5 5 6 5 4 5 5 4 5 5 5 7 7 6 6 6 6 6 5 5 6 5 5 5 7 9 9 11 10 15 16 17 18 19 19 19 18 19 20 20 20 20 20 20 12 9 9
1 1 1 2 5 3 4 3 5 3 1 4 4 2 2 1 5 3 3 5 1 8 7 1 4 5 6 5 5 6 7 6 5 6 5 6 5 5 4 4 3 3 2 1 1 3 4 4 3 4 4 4 5 6 6 6 5 4 5 5 5 5 5 4 5 5 5 6 6 6 5 5 5 5 6 9 9 7 8 10 13 13 13 13 17 11 13 14 20 17 18 19 12 8 9 9 10
1 2 1 1 2 0 1 5 4 2 0 2 3 2 3 1 3 5 5 5 7 9 8 13 17 13 13 9 7 6 7 6 5 5 6 5 4 3 5 5 5 3 2 0 3 3 3 3 3 4 4 4 5 6 5 6 6 6 6 6 7 7 7 7 6 6 6 7 7 6 5 5 5 5 5 6 6 6 7 7 8 8 8 8 10 8 8 8 9 9 9 10 8 9 9 9 9
2 0 1 2 0 0 2 3 2 2 2 4 1 3 4 2 1 4 11 9 10 12 14 13 6 15 16 14 10 6 7 8 7 7 7 7 7 6 3 2 1 1 1 5 3 3 4 3 3 3 4 5 4 4 4 5 5 6 6 6 7 7 7 8 7 7 7 7 6 7 6 7 7 7 7 7 7 8 7 7 7 7 8 8 8 8 8 8 7 7 8 9 9 8 8 9 9
0 1 1 3 2 1 1 0 2 5 3 3 3 4 4 7 2 5 9 14 4 1 2 7 5 10 11 8 9 9 9 9 8 8 7 6 5 5 5 4 5 5 3 2 1 1 2 3 3 3 5 5 6 5 6 6 6 5 6 6 6 6 6 6 6 6 6 6 6 7 8 8 8 8 9 9 9 8 8 8 8 7 7 7 8 8 9 8 7 7 7 8 8 9 9 9 9
3 1 1 1 3 3 1 1 3 3 9 5 5 2 5 4 6 2 8 14 4 4 4 6 8 8 7 11 9 11 11 10 9 8 7 7 7 7 6 5 3 2 2 1 0 0 0 1 1 2 2 3 3 4 3 5 4 4 3 3 4 5 5 5 5 5 5 6 6 7 7 7 8 9 9 9 9 8 9 8 8 8 7 7 7 7 8 8 8 7 8 8 8 8 9 9 9
1 1 1 1 2 4 3 1 1 2 3 0 4 4 6 9 3 2 11 15 1 2 4 8 10 9 7 9 10 9 8 6 7 7 4 3 4 3 2 3 3 2 3 2 1 0 0 0 0 1 1 2 3 2 4 3 3 4 3 3 4 4 5 5 5 4 5 5 5 7 8 8 7 7 8 8 8 9 9 9 9 8 8 8 8 7 7 8 7 8 8 8 8 8 8 9 9
1 0 1 1 2 2 1 1 3 4 1 3 3 6 3 2 3 8 15 5 4 4 6 8 10 10 10 10 10 9 9 9 7 6 7 4 3 4 3 4 4 4 5 3 1 1 0 0 1 1 1 1 2 3 3 3 3 3 3 3 3 3 4 5 4 5 5 5 6 6 7 7 7 7 8 7 8 8 8 9 9 9 9 8 8 9 8 8 8 8 8 8 9 8 8 8 8
2 1 3 3 2 2 2 6 3 1 2 2 5 6 2 2 3 10 3 3 6 7 7 5 11 13 10 9 8 7 9 10 10 6 4 4 4 6 6 4 5 5 3 3 3 2 0 0 1 1 1 2 3 3 3 3 3 3 3 2 3 3 4 4 4 4 4 4 4 4 4 4 5 5 6 7 6 7 7 8 9 9 10 10 9 9 9 9 9 8 9 8 8 8 8 8 8
1 1 2 2 5 3 3 1 4 1 3 4 4 3 0 1 2 14 2 4 7 11 7 8 8 10 10 9 9 6 7 7 7 6 9 7 7 7 6 7 6 4 4 4 3 1 0 0 0 1 2 2 3 4 2 3 3 3 3 3 3 4 3 4 4 3 3 3 2 3 2 3 3 3 4 5 6 7 7 8 7 8 8 9 10 11 12 10 9 9 9 9 8 8 8 8 8
0 0 2 4 6 1 0 2 1 3 3 4 4 3 4 2 11 3 6 6 5 8 9 9 9 9 8 7 8 7 8 8 5 6 7 6 5 5 8 6 7 5 5 4 3 1 1 1 1 1 2 2 3 1 2 2 2 2 2 2 2 2 3 3 3 2 2 1 2 3 3 3 3 3 4 4 6 6 6 7 7 7 7 8 10 13 14 11 10 10 10 9 9 9 9 9 8
1 4 1 5 6 4 0 0 1 4 2 6 2 6 8 11 17 1 4 9 5 5 8 9 8 8 8 7 9 8 7 7 7 8 6 6 5 6 7 6 5 6 5 3 1 1 0 0 0 1 1 1 0 1 0 1 2 2 1 1 1 2 2 2 3 2 1 0 1 1 1 3 2 3 4 5 5 6 6 6 7 7 7 8 9 9 10 10 10 11 11 11 10 10 10 10 9
1 1 5 1 4 2 1 1 1 4 1 4 0 3 12 6 7 3 7 9 14 11 10 10 9 9 9 9 9 10 10 7 8 8 6 6 5 4 5 5 4 4 3 2 3 2 1 0 0 1 0 0 0 0 1 1 1 2 2 2 2 2 2 3 4 3 2 0 0 1 1 2 3 3 4 5 6 5 6 6 7 7 7 8 8 8 8 8 9 10 9 10 11 11 11 10 10
2 2 4 3 1 5 8 2 5 4 1 1 2 4 12 16 6 5 8 8 9 11 11 11 11 11 10 9 10 10 10 6 7 7 7 7 5 5 5 5 5 4 5 5 2 1 1 2 1 2 1 1 1 1 1 2 2 3 2 2 2 2 3 3 4 3 2 1 1 1 1 2 3 2 3 3 4 4 5 5 6 6 7 7 7 7 7 9 9 10 10 10 12 11 11 13 9
5 2 4 4 0 6 7 1 2 2 1 0 6 8 7 9 3 1 5 8 9 8 10 11 13 12 11 11 10 8 7 8 7 8 8 7 5 5 5 5 6 6 5 4 4 3 3 3 3 3 2 1 1 2 2 3 3 3 3 3 3 2 3 4 3 3 3 1 0 1 1 1 2 2 2 3 3 4 4 5 5 6 6 6 6 7 8 9 10 11 10 10 10 13 12 13 12
3 2 2 2 3 3 4 5 1 1 2 3 3 3 12 13 3 3 5 9 9 10 11 13 13 11 12 9 8 9 10 11 13 11 10 7 6 6 6 7 7 6 5 4 4 6 6 5 4 3 2 2 2 3 3 3 4 3 4 3 3 3 3 4 4 3 4 1 0 1 1 1 2 2 3 3 3 4 4 4 5 5 6 6 6 7 7 7 8 9 13 10 11 12 12 13 13
2 2 3 7 1 5 8 3 2 4 1 5 2 7 16 18 13 6 9 10 11 14 15 16 15 12 11 11 10 11 12 13 14 10 8 9 8 7 6 6 6 5 5 5 4 4 4 4 3 2 2 2 2 3 3 3 3 3 3 3 3 4 4 4 4 4 4 1 1 1 1 1 2 2 3 3 4 5 5 5 6 6 6 7 7 7 8 8 8 9 11 12 10 10 12 13 13
4 5 5 3 4 7 5 5 3 1 5 7 6 10 13 16 18 9 6 10 14 16 12 10 8 9 10 11 12 12 14 16 9 8 8 8 8 8 7 6 6 6 6 5 5 4 5 3 2 1 2 3 2 3 2 3 2 3 3 4 3 3 4 4 4 5 3 2 2 1 2 2 2 2 3 3 3 5 6 6 7 7 7 8 9 10 9 8 10 11 9 13 14 10 10 10 12
3 3 1 6 6 9 4 4 2 1 1 10 13 9 12 17 18 16 6 8 11 10 12 13 10 11 13 13 15 16 16 16 7 9 9 9 10 9 8 6 6 5 5 5 5 5 5 5 4 4 4 3 3 3 2 2 2 2 2 3 5 5 5 4 5 4 3 2 2 2 2 2 2 3 3 3 5 5 5 6 7 7 7 7 8 8 8 9 9 9 12 12 13 15 9 8 10
1 1 3 8 4 10 5 1 1 4 4 5 3 5 12 16 17 16 5 7 15 15 15 15 13 13 13 16 18 17 16 4 6 8 8 8 9 8 6 6 5 7 6 5 7 8 6 4 4 5 3 3 4 4 3 2 2 2 3 5 5 5 6 5 6 5 4 2 2 2 3 3 3 3 4 4 5 5 6 6 6 7 7 7 7 8 8 9 9 8 9 12 10 13 13 7 9
1 3 3 3 9 6 11 4 2 1 2 10 6 9 14 17 18 18 15 15 13 11 15 17 14 15 14 15 16 14 9 11 9 11 8 10 10 9 8 7 7 9 9 9 7 5 4 5 5 5 4 4 4 4 3 3 3 3 3 4 4 5 5 5 5 6 3 3 3 4 4 5 6 6 5 5 6 6 6 7 6 6 6 6 7 8 7 8 7 9 9 10 13 10 11 10 10
3 1 1 9 3 4 9 2 4 1 1 7 7 15 17 16 17 23 19 12 13 11 11 14 11 15 17 18 16 15 16 14 16 16 15 12 12 11 8 9 9 7 8 6 5 6 5 5 5 5 5 4 4 4 4 4 4 4 4 5 5 5 6 4 5 5 3 1 4 3 3 3 4 5 5 5 5 5 6 7 7 6 7 6 7 9 9 9 9 9 9 9 10 14 11 10 7
2 5 5 5 5 6 7 5 6 5 2 1 9 14 12 9 12 9 3 2 3 11 6 7 10 12 10 7 9 14 18 17 15 14 13 14 14 14 13 10 8 8 8 8 7 7 5 6 6 6 6 5 4 3 4 4 3 3 3 4 5 4 4 5 5 5 2 1 3 3 4 4 5 5 4 4 4 5 5 6 6 7 7 7 7 8 9 9 8 8 8 10 10 10 17 14 13
3 6 11 8 6 6 4 4 6 5 4 3 5 12 5 1 3 10 10 4 6 3 5 10 10 8 7 11 15 11 12 12 17 18 19 18 16 12 10 10 9 9 9 8 7 7 5 5 4 4 4 4 4 4 4 3 3 3 3 4 5 4 6 7 8 9 9 8 7 5 5 5 5 5 4 4 5 5 5 6 6 6 6 6 7 8 9 9 8 8 7 8 10 10 12 15 15
1 5 3 6 2 1 1 3 5 6 3 1 4 2 17 3 2 4 6 3 8 9 7 12 6 8 9 14 13 11 13 12 11 11 12 14 14 13 12 11 10 10 9 7 6 5 5 5 4 5 5 4 4 3 3 3 3 3 3 3 3 4 5 4 3 4 4 6 5 7 7 6 6 7 7 5 6 6 6 6 6 6 7 6 7 8 9 10 9 7 7 7 9 11 10 15 18
5 1 4 5 4 1 2 1 3 7 0 4 3 6 13 15 8 11 14 9 10 13 18 12 10 8 11 13 11 10 12 13 14 16 17 16 16 17 17 12 10 10 8 6 6 5 5 6 5 5 4 4 3 3 3 3 3 3 3 3 3 4 4 7 6 5 3 4 6 7 6 6 5 5 7 7 6 7 6 6 6 7 8 8 8 8 9 9 8 8 8 9 10 8 11 13 16
3 3 5 3 2 3 3 2 4 2 5 9 5 1 4 8 5 3 1 5 8 15 17 14 9 9 11 12 11 12 12 14 15 15 17 18 18 16 12 12 10 9 7 8 7 7 6 5 4 3 4 3 3 3 3 3 3 3 3 3 4 4 4 5 5 4 4 4 6 6 7 7 6 5 6 7 7 6 6 7 8 8 9 10 8 9 8 9 11 12 10 8 8 10 11 14 15
1 5 5 6 5 5 2 1 1 4 3 16 5 8 4 21 6 4 2 2 7 12 15 13 10 7 8 10 10 10 8 10 12 15 14 15 14 12 10 9 9 9 8 8 6 5 4 3 3 3 4 3 3 3 2 3 3 2 3 3 4 5 4 5 4 6 6 5 7 8 7 7 7 7 6 6 7 7 7 8 8 9 9 10 10 9 10 10 10 10 11 10 11 13 13 14 15
5 5 2 3 5 3 2 6 1 3 7 14 5 15 9 12 4 9 9 9 11 11 7 6 6 6 6 7 8 9 11 11 11 11 11 12 10 11 10 12 10 8 7 7 6 5 4 4 4 4 4 2 2 3 2 3 3 2 3 3 4 5 6 6 7 8 7 7 8 9 8 8 8 8 7 7 7 8 8 8 9 9 9 9 10 10 10 9 10 9 11 12 13 14 12 14 16
3 1 2 5 3 5 2 4 4 1 11 2 2 9 8 9 5 5 6 3 5 10 8 7 7 8 7 6 7 9 10 10 9 10 10 11 10 10 9 11 9 9 7 7 6 4 4 4 3 4 3 3 3 3 2 3 2 3 3 3 4 4 5 6 7 9 8 9 8 10 9 8 9 9 8 8 8 6 8 8 8 9 10 9 9 9 10 10 10 11 11 11 11 12 13 14 15
4 4 3 1 6 7 5 3 2 6 10 1 1 4 5 17 19 4 6 11 9 8 8 8 7 7 5 4 7 8 8 7 10 11 11 12 15 15 12 10 9 9 9 9 8 6 5 4 4 4 4 3 3 2 2 3 3 3 3 3 4 4 5 5 6 7 7 8 8 9 9 10 9 10 9 9 9 8 8 9 9 8 9 9 10 10 11 12 11 12 11 11 12 14 13 13 14
6 6 5 4 1 0 5 5 2 7 6 3 2 2 10 11 9 15 21 19 13 10 10 9 6 7 6 5 6 7 7 10 11 12 12 14 15 13 12 11 10 9 9 10 7 6 4 4 4 4 5 3 2 2 2 2 3 3 3 3 4 4 5 5 5 7 8 7 7 9 9 9 11 10 11 11 8 10 8 9 10 11 11 11 11 11 12 11 12 10 13 12 14 13 12 14 14
10 3 8 8 8 6 5 3 6 11 9 1 5 3 9 5 5 1 12 13 10 9 9 7 4 4 4 4 4 5 7 8 9 11 13 14 14 13 13 11 10 9 9 8 6 5 4 4 4 4 3 3 1 2 1 3 3 3 3 3 4 4 5 5 5 6 7 9 8 9 9 8 9 11 11 9 10 10 11 10 10 11 11 11 10 12 12 12 11 12 10 13 12 11 12 13 13
2 3 5 5 9 6 7 5 3 4 8 9 3 8 4 8 1 2 3 3 7 4 8 6 8 3 3 3 6 8 8 9 9 11 11 12 12 11 10 10 9 8 8 7 6 5 5 5 4 4 4 3 1 1 2 2 3 3 3 4 5 4 4 5 6 6 7 7 9 9 9 10 8 10 11 10 12 9 11 13 11 12 11 11 12 11 13 12 10 12 12 12 14 9 11 16 14
4 6 6 7 1 4 2 2 1 1 3 17 2 11 11 4 14 12 11 4 11 3 8 7 8 4 2 8 8 7 8 9 10 12 13 13 10 10 10 10 9 8 7 7 7 7 7 5 4 3 3 1 1 1 2 3 3 3 4 5 4 4 5 6 8 9 9 8 8 9 9 11 10 10 9 11 12 11 12 11 12 13 12 11 12 12 11 12 11 12 12 12 13 11 13 15 16
8 3 7 2 2 4 5 5 3 2 4 11 1 15 21 4 17 6 3 7 7 8 12 11 4 2 5 11 9 9 10 10 9 9 8 11 11 11 9 8 9 9 8 7 6 5 5 5 4 3 2 1 2 1 2 3 3 4 5 4 4 4 5 7 7 8 8 9 9 8 9 9 11 10 10 12 11 13 12 14 12 13 13 12 13 12 12 12 12 11 13 13 12 11 14 13 14
2 2 2 5 3 1 1 4 4 3 5 8 9 8 15 14 18 8 4 6 7 9 11 7 7 6 10 12 9 7 5 6 10 12 11 12 13 12 11 10 8 8 7 7 6 6 4 3 3 3 2 2 2 1 2 2 3 4 4 4 5 6 5 6 7 8 9 10 11 10 11 10 11 9 11 11 11 13 13 13 13 13 12 14 12 13 11 12 11 12 12 12 14 12 13 16 16
1 0 1 1 2 2 5 7 3 5 7 2 18 11 21 3 9 6 7 10 9 10 7 9 12 12 12 11 9 10 10 12 11 12 13 13 12 11 11 11 10 8 7 5 6 5 5 4 3 2 1 1 0 2 2 3 4 4 4 4 5 5 5 7 7 8 9 10 10 11 11 12 11 10 11 11 12 12 13 14 13 13 14 12 12 13 12 14 13 12 14 12 11 13 17 20 18
2 2 2 1 0 2 4 1 5 6 4 7 4 13 21 10 11 8 10 7 11 12 13 10 10 12 13 11 11 10 12 12 12 13 13 13 11 9 9 9 8 6 5 5 6 6 5 4 3 2 2 2 2 2 1 3 3 3 4 5 6 6 7 7 8 8 10 10 10 11 9 11 10 11 10 12 13 13 12 14 12 14 12 15 14 17 16 13 18 15 18 15 16 14 16 15 13
14 15 14 15 9 4 2 13 3 2 5 8 5 19 18 16 8 7 8 7 8 11 12 10 9 12 11 11 10 10 11 12 12 11 10 11 9 9 8 6 5 7 6 6 5 5 4 3 3 2 2 2 1 1 2 3 2 3 4 6 6 6 6 7 8 10 10 10 10 9 11 11 10 12 10 12 13 11 11 12 13 16 16 16 18 18 18 15 17 17 19 14 15 15 14 14 13
Wind_Direction
6 343 179 114 73 101 59 1 150 338 58 11 69 24 187 277 212 74 137 35 42 317 309 64 49 24 203 179 129 118 44 103 234 135 213 226 189 293 350 354 341 343 354 341 342 345 357 9 29 36 38 39 38 38 37 37 35 31 29 28 26 28 26 26 25 22 15 4 350 338 327 309 315 309 299 294 292 290 291 294 292 283 288 291 290 293 296 298 299 301 304 303 298 290 277 277 291
66 47 65 19 4 53 246 129 103 357 41 69 236 107 238 300 94 211 158 145 170 138 145 87 80 77 82 102 117 102 36 16 178 155 148 258 304 314 355 353 339 353 346 344 348 354 1 9 27 35 39 40 40 40 39 39 38 37 35 33 30 28 27 25 25 24 20 15 13 7 4 346 332 324 315 311 308 307 314 309 294 286 282 282 284 287 292 293 297 299 300 300 302 297 277 278 287
53 56 53 29 33 74 92 30 311 61 79 67 271 206 342 133 92 340 208 140 136 154 167 103 102 71 47 35 37 61 202 279 13 357 115 349 53 325 338 339 344 351 344 341 350 356 2 16 31 36 39 40 41 40 40 37 38 37 36 36 34 32 29 28 27 28 25 22 19 17 14 9 2 344 330 322 320 318 318 319 315 306 298 295 290 288 290 291 293 296 297 299 299 305 299 263 269
94 36 149 70 243 28 55 27 90 122 114 204 294 279 189 164 129 109 94 144 153 147 202 28 56 280 106 59 133 71 54 30 153 225 25 10 75 284 316 329 342 333 352 1 353 357 6 22 34 37 39 41 40 40 39 39 37 36 36 36 35 34 32 31 28 27 27 26 26 25 24 20 14 7 349 338 330 332 323 315 313 317 317 310 307 298 293 293 293 294 296 297 298 300 306 302 296
68 359 83 101 109 6 103 115 136 102 287 201 150 268 258 191 134 134 155 213 232 256 299 157 82 341 104 125 5 141 193 244 10 78 130 311 340 327 317 329 331 349 16 5 3 3 10 30 34 37 39 40 40 40 39 38 38 37 36 35 35 34 34 33 30 29 28 26 25 25 23 22 21 18 14 7 349 339 329 320 319 319 315 317 317 312 303 296 292 293 294 296 297 297 304 310 308
64 48 1 91 342 160 65 61 46 86 221 147 107 208 218 196 136 161 140 103 37 107 142 74 158 177 32 357 171 107 226 91 192 19 108 349 333 323 323 307 335 27 11 14 10 4 15 33 36 38 38 38 40 40 39 37 37 37 36 36 34 35 34 33 31 29 27 26 25 24 22 21 22 19 19 19 18 9 359 342 331 325 322 320 318 317 315 308 300 294 292 293 294 294 290 297 300
211 50 358 23 34 46 172 125 174 173 331 153 247 211 197 171 133 126 139 97 351 39 1 131 118 98 72 276 14 88 221 241 70 146 128 74 336 313 308 327 28 38 18 14 11 9 20 36 39 39 39 40 39 38 38 38 37 36 35 35 35 35 34 32 31 29 27 26 25 25 23 23 21 19 17 17 19 14 10 6 359 351 338 329 324 320 317 314 311 303 294 293 291 292 296 278 280
60 115 318 109 332 49 47 173 153 163 347 180 196 195 219 174 157 131 170 119 206 130 85 131 107 99 238 47 158 235 344 191 117 150 26 5 285 311 349 0 50 32 22 13 15 13 19 37 39 41 41 41 42 41 39 37 37 36 36 35 34 35 35 33 31 28 27 26 25 25 24 23 22 20 18 17 17 14 12 7 4 2 358 352 341 329 321 317 314 311 309 299 292 291 289 280 273
4 87 245 68 52 29 66 76 261 226 279 277 288 215 13 181 164 121 123 207 76 139 162 194 193 86 213 90 142 260 323 351 88 68 61 296 16 321 18 24 60 39 24 21 16 18 21 35 41 42 43 42 43 42 41 40 38 37 36 35 35 34 33 32 31 29 28 26 26 25 24 23 22 21 19 18 15 12 12 10 7 3 358 355 351 347 340 331 322 315 311 306 300 299 295 285 276
40 53 266 117 138 51 34 292 108 196 227 230 211 152 152 189 158 145 151 126 171 143 206 164 172 133 143 138 140 260 167 272 182 81 354 265 251 353 39 38 60 64 41 27 24 23 28 30 41 43 43 43 43 43 42 40 39 38 36 36 34 34 33 31 30 28 27 26 25 25 24 22 21 20 19 17 16 14 13 11 7 4 360 358 355 350 348 346 341 332 325 318 315 312 303 294 285
284 16 129 75 33 115 173 222 255 310 245 306 291 232 204 165 131 117 140 140 141 160 169 144 45 130 124 191 213 262 26 125 120 150 184 222 113 68 71 30 38 62 59 39 32 33 31 33 36 42 44 43 42 42 42 40 39 38 37 36 35 33 31 31 29 27 26 26 25 24 23 21 20 19 19 18 18 16 15 12 5 3 0 0 357 354 351 351 346 343 343 337 329 324 314 299 290
13 42 11 100 162 157 223 160 232 261 300 355 183 268 196 149 115 120 140 134 189 153 175 158 189 146 105 155 246 221 144 127 166 179 204 200 112 78 55 35 44 37 59 56 44 38 40 38 36 36 41 41 40 40 41 39 39 38 37 36 35 34 32 30 29 27 25 24 25 24 23 20 19 18 17 17 17 16 15 12 6 2 1 360 359 358 356 352 349 345 342 340 337 333 327 316 302
117 96 88 81 196 124 175 116 221 273 337 270 164 198 103 131 181 176 169 116 142 143 277 212 135 100 151 181 258 281 148 190 205 203 205 130 106 49 42 49 44 48 44 48 55 44 39 38 37 36 35 36 33 34 36 40 38 38 38 36 34 34 31 30 30 27 24 23 22 22 22 20 18 17 16 15 15 14 12 9 5 3 2 0 360 358 355 351 347 344 342 338 335 332 330 326 318
120 181 122 142 46 133 135 185 354 162 252 229 238 126 153 157 253 166 133 131 186 170 241 195 145 141 100 57 215 193 198 197 202 202 167 120 70 56 59 45 47 46 42 51 53 48 38 33 37 37 35 30 30 28 24 32 38 37 36 35 34 33 30 30 28 28 25 24 22 20 19 18 17 16 15 13 12 11 10 7 3 1 2 3 1 357 353 351 348 345 342 339 333 330 331 330 328
100 137 83 116 69 89 232 131 201 174 231 185 208 144 106 353 78 88 160 142 219 212 308 21 166 134 229 155 244 196 183 193 182 169 131 75 67 46 36 33 46 38 39 45 53 44 37 30 31 33 33 31 29 28 27 15 31 32 34 34 33 31 31 28 27 26 23 21 21 20 17 14 13 11 12 12 10 8 6 4 360 359 1 1 359 356 353 350 349 346 342 339 336 333 331 330 329
135 83 85 106 180 138 232 157 37 116 252 169 234 136 90 350 36 139 238 168 173 341 130 188 243 204 263 186 228 165 170 169 175 128 105 92 35 25 22 16 48 35 45 43 42 37 35 36 25 30 32 33 28 29 23 23 21 30 28 31 31 29 29 27 25 22 19 13 15 14 13 13 9 7 6 5 6 4 3 0 358 357 358 358 357 354 352 350 347 345 343 339 336 334 332 330 325
70 83 45 40 193 166 230 159 149 195 243 248 188 168 150 181 318 94 257 125 129 177 30 230 231 13 203 227 238 141 156 145 118 105 100 119 67 89 14 13 24 39 25 36 41 25 33 36 25 31 29 28 31 26 26 23 17 27 21 23 28 27 26 22 19 16 15 8 10 7 9 9 10 6 2 3 3 357 355 356 356 355 354 354 353 351 350 348 346 344 342 340 338 335 334 328 321
57 61 113 38 200 147 202 177 185 220 145 214 182 200 116 163 185 202 47 39 46 18 78 314 352 24 293 305 87 121 129 131 136 131 152 175 155 182 85 32 42 52 34 21 21 28 27 26 25 31 27 22 29 28 26 21 19 20 21 18 21 23 18 19 14 15 9 7 5 6 8 7 5 1 0 1 1 356 352 353 352 352 351 351 348 347 346 345 344 344 342 341 339 337 335 327 325
85 128 82 272 173 236 153 203 201 121 239 183 190 166 169 212 140 196 120 246 166 143 276 14 6 5 40 64 106 119 133 140 142 150 158 171 173 152 123 104 71 63 42 25 17 20 22 24 20 26 22 20 23 24 22 18 22 21 20 19 19 19 16 14 12 9 8 6 4 4 6 2 359 356 359 357 354 353 349 349 350 349 348 347 343 343 341 342 341 343 341 341 341 339 336 332 327
203 111 29 266 211 250 214 177 201 221 136 148 175 224 174 233 149 144 204 181 200 201 188 308 214 191 182 166 149 144 145 160 156 155 173 171 170 148 130 117 114 103 119 129 39 23 31 27 14 26 22 18 31 16 15 13 14 16 14 19 22 19 17 15 11 9 9 5 2 2 2 357 354 352 353 357 354 353 349 345 344 344 342 340 338 337 335 334 337 337 337 340 339 337 335 331 326
235 71 153 235 199 122 248 174 238 208 318 179 147 70 174 227 178 162 159 110 246 251 228 183 193 182 183 182 170 160 159 160 167 175 182 162 162 164 149 151 134 141 184 186 47 18 12 22 14 13 9 25 31 19 19 9 10 9 9 12 13 12 9 10 12 12 7 4 1 1 356 354 352 355 358 356 357 351 347 346 344 344 339 337 334 333 330 328 331 331 334 335 335 334 331 328 326
100 95 188 213 313 308 269 197 170 126 118 102 100 139 228 109 63 184 161 190 219 208 225 219 201 171 167 174 183 162 164 168 177 178 184 155 150 154 170 147 111 96 33 66 18 5 2 1 16 359 18 13 28 21 16 4 19 12 8 10 14 6 5 0 1 4 3 2 0 358 357 358 360 359 359 356 356 352 347 348 343 339 337 334 336 330 327 324 324 325 326 329 327 328 324 322 321
2 307 291 198 200 215 295 217 212 135 123 134 151 222 100 164 222 200 198 212 223 241 260 199 168 183 168 146 148 166 171 178 179 183 177 156 151 153 151 143 122 96 60 74 337 329 340 359 8 11 21 11 9 9 6 13 10 5 4 7 20 2 1 357 357 356 357 355 1 2 5 3 0 360 357 355 353 352 348 345 342 339 335 332 332 328 323 321 320 319 319 319 320 320 321 319 318
106 148 6 204 172 215 46 269 99 165 147 209 205 95 171 172 240 188 203 235 232 288 249 178 145 139 141 152 172 174 177 176 184 188 183 169 160 165 163 145 124 78 87 130 357 283 294 347 351 19 24 22 2 1 20 11 358 8 0 15 8 2 360 355 348 352 351 3 8 10 12 9 4 359 357 354 352 348 347 340 338 335 334 330 326 324 319 318 316 318 315 313 315 316 315 318 316
85 47 225 255 182 242 286 256 334 202 239 133 115 149 229 186 199 95 234 232 222 48 86 121 132 139 152 159 172 176 176 185 186 199 209 205 180 161 125 86 106 124 152 168 198 183 221 229 14 67 19 27 10 20 29 352 7 2 11 12 6 2 352 344 341 346 6 6 15 18 15 7 7 3 357 352 343 345 341 339 338 336 333 329 331 326 321 314 313 313 315 310 311 310 309 312 313
136 205 176 313 261 293 279 303 250 215 235 137 127 239 279 263 337 261 245 234 134 120 103 129 135 150 167 177 178 176 181 184 189 179 188 181 173 140 191 172 162 160 183 183 201 213 258 334 72 19 35 19 26 38 9 16 360 7 353 9 350 356 341 334 342 358 6 18 14 21 16 10 4 358 350 345 344 340 337 335 335 335 332 330 331 326 324 317 313 310 305 306 307 305 304 303 307
154 227 202 218 271 333 291 202 248 195 247 185 185 246 270 353 92 276 37 160 132 118 132 150 155 168 176 177 182 186 176 188 184 179 143 158 164 169 192 175 170 195 173 196 215 224 241 40 15 1 4 28 40 37 4 5 360 355 343 349 0 350 332 341 344 357 13 24 24 22 20 10 358 352 346 339 338 337 338 340 339 333 332 332 328 321 320 318 313 308 306 303 300 300 298 299 299
91 195 331 288 320 251 269 312 286 65 271 168 191 259 100 278 85 246 167 176 157 140 157 166 177 174 179 183 182 187 192 194 189 159 173 176 185 184 185 177 198 198 166 198 206 209 50 168 323 351 14 26 43 11 12 359 345 328 337 353 352 339 340 337 338 352 358 14 26 25 20 4 354 347 339 337 341 340 339 337 332 332 329 329 331 326 322 317 313 309 306 301 296 292 292 292 293
182 115 336 298 349 29 353 200 268 158 246 149 157 272 265 161 232 262 168 148 161 150 164 180 185 186 187 187 187 194 198 197 190 187 192 192 186 181 183 196 176 182 208 186 192 118 179 92 61 3 17 48 34 359 341 312 314 326 326 329 316 332 325 320 316 319 322 353 24 18 15 357 349 346 343 346 345 339 331 329 330 329 328 336 330 323 319 319 319 318 312 308 304 296 293 292 287
108 35 99 341 359 355 350 123 11 144 248 148 193 293 256 216 234 219 157 148 120 141 182 189 194 191 195 194 196 202 211 205 200 202 196 199 191 186 182 194 180 169 188 207 120 172 214 21 42 325 62 28 331 305 286 316 299 298 296 282 288 309 290 287 278 275 272 249 59 19 19 345 341 345 352 349 346 338 333 328 328 327 330 328 324 320 322 321 317 318 318 319 311 307 303 298 295
168 273 66 82 14 270 273 105 181 154 141 162 102 216 284 254 242 214 175 162 163 181 195 197 198 200 200 201 201 204 214 207 199 206 207 197 196 180 184 177 176 187 167 126 171 183 99 248 224 214 214 238 255 283 259 274 267 275 275 268 262 255 265 263 262 265 254 230 139 60 36 352 356 357 355 351 340 337 331 327 324 324 324 321 318 319 315 315 314 314 315 309 308 307 302 297 296
15 31 298 321 107 278 296 260 179 185 349 23 115 275 249 277 273 202 181 182 174 191 194 201 204 203 202 202 207 208 214 206 217 213 204 202 184 182 177 177 180 174 175 187 164 104 153 218 218 194 222 230 247 230 256 249 257 256 243 251 246 244 257 255 254 254 253 247 100 47 32 357 360 349 345 340 328 322 319 317 314 314 317 315 312 312 322 323 324 317 314 313 310 304 303 301 298
350 76 268 280 358 265 339 15 256 331 125 348 178 237 315 292 281 238 191 178 197 200 205 210 210 209 203 207 206 209 210 221 223 216 211 197 193 177 183 167 172 182 181 155 153 167 186 213 195 192 211 214 240 278 275 272 270 259 249 247 247 247 252 257 260 261 261 270 76 44 9 346 333 334 328 323 322 312 312 313 306 309 310 310 312 328 329 326 324 317 312 313 311 309 306 297 297
311 20 225 209 255 311 294 305 51 340 166 221 247 222 247 255 221 188 190 196 195 213 216 217 214 208 207 207 207 208 211 207 210 206 206 190 184 190 185 169 176 169 165 162 172 172 180 192 200 199 219 214 218 228 240 247 249 251 255 248 254 238 252 251 247 250 257 264 35 9 333 320 315 316 318 315 314 309 312 309 310 312 316 321 325 322 319 320 317 320 315 315 313 308 302 301 297
241 283 316 308 303 212 249 304 259 25 145 218 253 236 260 266 265 187 203 201 202 215 214 216 212 206 206 208 209 212 211 212 210 198 189 186 185 190 187 178 172 167 163 172 178 198 196 210 208 213 205 238 240 239 252 256 268 282 285 282 276 265 274 268 258 263 269 281 305 259 261 292 288 295 305 312 321 321 322 322 325 329 329 327 326 323 322 321 319 317 311 306 296 285 291 294 294
207 187 205 200 273 270 209 238 277 61 294 283 217 231 252 266 273 257 205 205 208 224 226 236 216 211 210 212 214 212 215 218 203 190 186 184 185 182 188 191 183 176 170 172 179 180 194 214 211 240 239 222 235 253 269 278 289 275 284 299 298 271 267 266 256 244 251 266 262 248 251 264 266 287 292 309 311 322 326 328 330 332 333 332 330 329 326 329 325 320 310 306 299 284 277 287 291
108 108 147 238 235 276 270 225 258 23 328 250 256 239 253 264 266 270 221 208 231 234 234 229 216 207 210 213 214 215 215 215 184 191 191 184 186 187 188 183 190 182 175 174 175 193 190 189 167 215 220 210 205 226 252 217 251 291 282 255 262 271 269 264 261 257 246 250 250 235 252 253 261 279 304 313 324 325 325 323 328 329 328 328 322 316 318 317 318 316 311 305 302 298 283 275 282
148 166 207 275 206 260 264 259 5 301 171 288 283 247 251 257 267 267 236 182 232 219 230 234 219 214 214 214 217 215 217 174 172 201 201 189 190 192 188 189 190 173 201 177 184 196 195 184 179 214 224 205 211 208 212 212 198 195 226 256 263 283 293 292 301 303 299 297 285 282 293 290 299 311 317 320 323 328 325 326 322 317 322 313 306 303 304 304 303 300 305 303 295 296 296 297 293
81 209 233 304 271 246 280 315 10 11 140 259 281 274 260 261 262 266 253 231 243 223 216 230 211 216 220 217 221 217 202 205 197 207 194 194 191 195 190 195 202 191 179 187 194 185 198 192 206 215 212 200 218 212 200 216 224 234 206 247 243 267 255 248 256 263 277 296 301 316 316 320 323 322 317 320 323 321 317 314 308 306 302 303 302 296 292 295 295 302 308 304 307 290 284 288 277
141 107 163 241 236 12 308 300 4 304 193 294 308 291 274 259 256 257 256 247 249 245 226 232 209 218 217 216 210 206 208 200 201 197 196 192 193 193 195 199 204 197 176 185 184 196 201 201 206 205 212 208 215 222 211 219 216 229 240 247 259 238 257 261 256 268 277 328 309 292 285 284 291 292 300 307 309 304 304 300 300 296 297 297 298 302 305 304 309 312 309 298 299 302 299 293 285
267 191 210 256 273 236 194 271 319 285 310 148 294 278 268 216 240 272 326 334 251 264 248 247 233 230 229 231 218 210 208 200 199 196 195 192 193 198 195 198 196 193 184 185 189 195 194 202 203 197 203 203 207 218 218 216 233 263 266 272 256 266 270 253 243 249 213 245 281 288 281 268 267 268 268 264 264 272 270 270 277 285 291 296 298 299 300 300 300 294 295 297 296 301 302 297 289
318 227 205 222 230 268 295 337 3 5 326 345 33 325 277 319 233 258 276 333 298 250 215 239 234 226 222 224 224 211 216 201 199 197 194 193 192 191 197 200 194 197 187 192 188 193 189 206 200 203 209 211 217 224 215 200 213 235 283 321 328 324 321 331 335 335 333 333 319 304 295 294 294 290 282 276 264 271 269 265 268 278 280 287 292 292 293 294 288 284 279 285 289 285 287 296 289
48 269 200 220 226 192 336 336 29 304 230 316 38 131 283 117 225 249 270 249 273 282 239 261 231 222 214 227 224 206 205 200 203 199 195 193 196 191 198 198 196 190 195 185 186 193 198 206 202 199 199 206 211 227 213 205 231 237 245 255 255 271 285 266 250 271 283 290 291 296 299 305 303 299 296 285 283 277 278 276 278 278 282 283 288 289 290 287 285 278 281 276 278 287 283 283 284
239 245 116 105 109 130 199 126 189 247 326 286 207 176 271 281 235 238 244 257 268 278 277 263 251 227 222 227 222 209 202 199 195 198 196 197 191 192 194 192 194 192 185 176 184 193 199 213 205 205 204 204 217 224 231 206 233 249 264 269 270 280 268 282 289 278 267 277 290 292 298 294 287 278 283 284 275 279 282 283 283 291 294 291 289 285 281 285 283 276 272 274 277 271 272 268 279
220 211 132 130 136 183 154 167 242 240 13 293 195 166 301 251 268 343 91 228 256 259 261 267 253 230 228 231 221 213 204 200 194 195 196 193 194 195 188 189 197 189 175 175 187 194 203 207 195 186 202 206 239 235 235 243 228 244 242 263 282 271 274 283 290 288 289 282 285 293 294 292 285 269 265 275 276 274 283 290 295 294 294 293 288 283 278 277 281 286 284 275 272 276 269 269 269
242 139 92 80 72 69 114 125 225 316 57 278 191 190 213 280 183 145 357 198 243 245 248 253 257 237 227 229 225 212 205 202 203 203 195 194 193 189 187 183 188 188 183 180 184 183 195 188 201 186 222 208 228 253 242 259 249 244 271 273 285 296 301 298 290 299 303 306 303 299 296 292 288 285 273 268 284 288 291 292 289 288 289 288 288 283 283 280 278 277 275 275 276 275 274 266 262
122 109 97 7 40 36 30 69 82 31 272 263 238 187 170 285 175 180 155 202 200 227 265 279 276 274 248 229 212 204 202 202 199 196 193 192 186 182 181 188 186 185 181 178 185 192 195 190 203 196 219 217 234 247 248 265 264 263 268 280 294 304 310 307 313 312 315 317 310 305 301 298 294 290 291 288 283 290 290 287 286 284 282 281 283 283 278 277 276 274 277 276 274 273 272 276 277
127 84 105 14 333 16 35 338 40 177 265 271 285 179 182 220 284 231 235 272 213 189 212 236 254 255 246 219 216 209 203 199 187 181 187 181 178 192 183 186 181 180 176 183 196 196 195 200 184 209 235 230 248 253 265 272 274 279 277 289 302 303 301 303 307 307 311 305 301 298 299 296 294 292 291 293 291 288 286 282 280 284 283 279 277 276 277 276 277 277 274 271 270 269 268 270 272
89 78 39 85 271 20 316 34 302 197 232 214 34 152 311 234 245 226 259 255 240 228 219 231 249 267 253 224 216 211 201 182 183 186 182 185 187 186 190 184 176 180 181 187 196 197 192 183 189 192 239 233 245 250 259 271 284 286 299 306 305 296 290 290 298 297 299 297 298 296 300 297 298 299 299 296 292 291 289 288 287 282 284 280 277 278 275 275 273 272 268 265 264 267 267 265 267
122 157 147 104 277 220 263 269 230 301 286 260 160 127 248 274 277 214 231 235 223 228 223 241 244 256 258 223 217 207 196 191 190 188 188 188 188 187 183 180 181 180 186 188 193 188 183 188 186 183 229 233 249 268 274 291 289 295 303 302 295 288 285 290 293 296 296 293 291 291 294 295 297 293 296 292 292 292 284 280 282 282 277 276 277 275 275 273 270 266 268 267 268 265 265 263 265
197 119 152 185 142 155 232 211 243 259 259 243 246 50 241 350 231 236 211 227 234 235 255 266 274 249 257 236 218 204 195 198 190 191 192 190 189 182 181 180 181 183 185 189 187 186 168 187 181 196 236 259 235 261 284 294 297 301 300 291 281 277 282 293 291 290 294 295 292 288 288 290 291 295 292 293 295 291 288 285 280 279 277 276 275 275 277 274 270 271 267 268 267 261 260 261 260
173 163 80 98 228 127 226 203 201 299 339 311 165 215 194 215 69 302 219 290 253 266 260 267 267 265 237 240 216 207 201 195 192 194 195 195 188 181 179 182 182 182 184 183 186 175 174 190 183 195 209 239 247 270 290 283 290 289 295 290 280 286 299 302 295 289 285 285 291 292 291 290 288 291 291 294 294 292 292 291 285 277 275 273 274 271 273 272 267 267 268 264 264 259 262 262 263
207 116 196 211 163 127 19 352 59 60 67 266 141 280 266 325 274 219 246 191 247 239 259 254 253 257 210 236 229 210 202 195 194 196 195 188 184 191 183 178 179 180 178 184 188 179 178 175 176 203 222 230 243 272 271 293 286 297 289 281 291 311 307 299 295 294 293 293 292 292 291 291 291 289 290 295 295 292 290 287 288 286 283 279 273 270 266 267 268 267 264 265 263 261 260 264 266
102 196 234 176 150 113 128 219 321 61 208 269 26 266 285 3 290 62 83 193 250 248 244 240 251 221 222 238 228 209 204 203 199 200 196 190 190 185 180 181 178 178 181 183 184 176 172 161 174 186 202 233 269 256 279 271 287 288 282 288 306 302 298 293 292 296 301 301 296 291 290 291 292 292 291 294 295 294 292 291 285 286 284 283 279 276 271 267 266 264 263 261 261 261 263 260 263
147 192 234 116 218 205 302 89 266 257 256 268 278 280 271 239 264 267 207 190 232 244 242 243 246 229 231 240 233 215 201 188 193 196 191 190 192 188 181 179 177 179 178 176 165 156 146 155 175 163 197 211 225 250 264 287 286 280 281 307 309 302 293 293 297 302 303 299 297 295 292 289 290 290 293 295 294 294 293 291 288 286 287 285 280 274 270 268 263 266 262 263 261 259 259 265 266
47 262 26 297 105 172 133 198 188 114 249 4 276 309 273 174 202 233 251 187 202 221 239 230 226 223 225 232 221 205 197 202 198 196 197 194 191 185 177 174 175 175 171 169 151 143 152 166 162 164 163 191 248 270 278 291 275 279 302 305 293 290 299 304 307 306 300 296 293 295 294 295 293 294 292 291 290 292 293 293 292 289 287 285 285 287 284 286 279 276 274 267 263 256 261 267 268
159 165 253 340 189 231 108 327 157 171 197 217 278 296 276 260 182 205 235 201 197 199 220 220 220 228 228 224 213 205 203 201 201 196 194 190 185 179 176 174 171 167 162 152 153 157 155 147 155 156 177 223 222 245 250 261 273 287 299 295 298 310 312 311 304 298 294 292 294 294 293 292 295 291 294 294 293 290 289 290 292 294 295 299 297 296 296 292 288 283 279 277 274 265 262 262 260
179 179 203 187 142 135 147 256 80 154 189 234 165 253 275 281 138 170 202 211 189 215 214 216 216 228 225 223 220 203 205 210 200 196 186 183 180 176 169 162 150 152 151 156 154 128 132 151 159 170 176 199 200 261 245 270 284 295 295 302 310 315 309 305 299 296 292 294 295 295 295 296 291 292 295 294 294 294 295 301 302 302 301 298 297 295 294 294 287 285 282 280 277 274 270 264 258